Location: Unspecified
(0.0000°N, 0.0000°E)
Time: 04:36:06
(UTC+00:00)

Tiangong 2 - Pass Details

Date: 17 June 2019
Orbit: 376 x 388 km, 42.8° (Epoch: 26 June)

Event Time Altitude Azimuth Distance (km) Brightness Sun altitude
Exits shadow 04:09:02 24° 44° (NE) 832 3.4 -25.5°
Drops below altitude 10° 04:10:27 10° 44° (NE) 1,393 4.8 -25.2°
Sets 04:12:31 0° 45° (NE) 2,245 6.1 -24.7°
